Regional Weather Roundup
Issued by NWS

Home | Current Version | Previous Version | Text Only | Print | Product List | Glossary On
Versions: 1 2 3 4 5 6 7 8 9 10 11 12 13 14 15 16 17 18 19 20 21 22 23 24 25 26 27 28 29 30 31 32 33 34 35 36 37 38 39 40 41 42 43 44 45 46 47 48 49 50
000
ASMX46 KSGX 191711
RWRMX

MEXICAN WEATHER ROUNDUP
NATIONAL WEATHER SERVICE SAN DIEGO CA
900 AM PST THU JAN 19 2017

BAJA CALIFORNIA

CITY           SKY/WX    TMP DP  RH WIND       PRES   REMARKS
ENSENADA NW      N/A     55  32  41 E1        30.04R
LA PAZ         SUNNY     66  50  55 S3        30.13S
LORETO         MOSUNNY   70  54  56 CALM      30.08S
MEXICALI       MOSUNNY   54  46  76 E9        29.96F
S.J. DEL CABO  SUNNY     66  43  42 CALM      30.14R
TIJUANA        RAIN      55  52  88 S15       30.03R

NORTHWESTERN MEXICO

CITY           SKY/WX    TMP DP  RH WIND       PRES   REMARKS
CHIHUAHUA      MOSUNNY   55  23  28 SW12      30.08R
CULIACAN       SUNNY     64  52  63 CALM      30.08R
GUAYMAS        PTSUNNY   61  52  72 CALM      30.02F
HERMOSILLO     PTSUNNY   59  43  55 E14       30.04F
JUAREZ         PTSUNNY   54  36  50 W16       29.95F
LOS MOCHIS     SUNNY     64  54  68 N8        30.10R
OBREGON        MOSUNNY   64  39  39 NW3       30.06R

NORTHEASTERN MEXICO

CITY           SKY/WX    TMP DP  RH WIND       PRES   REMARKS
MATAMOROS      CLOUDY    63  59  88 N5        29.95R
MONCLOVA         N/A    N/A N/A N/A MISG        N/A
MONTERREY      MOSUNNY   66  54  63 CALM      29.93F
NUEVO LAREDO   SUNNY     66  50  55 NW3       29.93F
PIEDRAS NEGRAS SUNNY     61  46  59 CALM      29.92F
REYNOSA        CLOUDY    61  55  82 N3        29.95S
SALTILLO       SUNNY     72  48  43 S12       30.09F
TORREON        SUNNY     63  34  34 N6        30.07S
VICTORIA       PTSUNNY   77  64  65 S13G25    29.90F

WESTERN MEXICO

CITY           SKY/WX    TMP DP  RH WIND       PRES   REMARKS
AGUASCALIENTES PTSUNNY   64  37  36 S12       30.26F
COLIMA         PTSUNNY   77  57  50 CALM      30.12S
DURANGO        SUNNY     57  32  38 S10       30.20S
GUADALAJARA    PTSUNNY   68  45  42 S5        30.22S
MANZANILLO       N/A    N/A N/A N/A MISG        N/A
MAZATLAN       MOSUNNY   70  52  52 NW5       30.08R
PTO. VALLARTA  CLOUDY    73  64  73 E3        30.03R
TEPIC          CLOUDY    61  57  88 CALM      30.13R
URUAPAN        PTSUNNY   66  46  48 CALM      30.24
ZACATECAS      PTSUNNY   55  36  47 SW29      30.25S

CENTRAL MEXICO

CITY           SKY/WX    TMP DP  RH WIND       PRES   REMARKS
CUERNAVACA     CLOUDY    72  46  40 SW3       30.19S
LEON           PTSUNNY   66  43  42 SW7       30.31
MEXICO CITY    PTSUNNY   66  39  37 CALM      30.32
MORELIA        MOSUNNY   64  43  45 E2        30.27F
POZA RICA      PTSUNNY   79  72  78 SW5       29.99F FOG
PUEBLA         PTSUNNY   59  43  55 E5        30.33F
QUERETARO      MOSUNNY   64  43  45 NW8       30.31F
S. LUIS POTOSI PTSUNNY   66  32  28 SW9       30.20S
TAMPICO          N/A    N/A N/A N/A MISG        N/A
TOLUCA         PTSUNNY   55  41  58 SW7       30.40F
VERACRUZ       MOSUNNY   81  72  74 N2        29.97F

SOUTHERN MEXICO

CITY           SKY/WX    TMP DP  RH WIND       PRES   REMARKS
ACAPULCO       PTSUNNY   86  59  39 NE3       29.96F
B. DE HUATULCO PTSUNNY   84  68  58 CALM      30.01F
MINATITLAN     CLOUDY    73  72  94 SW8       29.96F FOG
OAXACA         PTSUNNY   72  48  43 CALM      30.25F
PTO. ESCONDIDO MOSUNNY   88  64  45 S9        30.03F
TAPACHULA      PTSUNNY   86  73  66 NW7       29.96F
TUX. GUTIERREZ SUNNY     79  63  57 E8        30.03F
VILLAHERMOSA   PTSUNNY   77  72  83 CALM      29.98S HAZE
ZIHUATANEJO    PTSUNNY   84  63  48 SW7       29.99S

YUCATAN PENINSULA

CITY           SKY/WX    TMP DP  RH WIND       PRES   REMARKS
CAMPECHE       MOSUNNY   84  70  61 SE18      29.95F
CANCUN         PTSUNNY   82  70  65 E8        30.05S
CHETUMAL       MOSUNNY   82  72  69 SE17      30.00F
C. DEL CARMEN  SUNNY     81  70  69 SE18      29.96F
COZUMEL        MOSUNNY   81  72  74 SE10      30.03R
MERIDA         MOSUNNY   84  66  54 SE14      30.00F

$$





USA.gov is the U.S. government's official web portal to all federal, state and local government web resources and services.